When you browse on this site, cookies collect data to enhance your experience and personalize the content and advertising you see.
Visit our Privacy Policy to learn more. By continuing to use the site, you agree to this use of cookies and data.
  • In Romania
  • List of Countries
  • For 7 days
  • Water Temperature
  • Satellite Maps
  • Weather Map
  • Weather Widgets
  • user-avatar
    Login

    Hourly Weather Mosyagino

    Today, 20 March, Wednesday

    Time Temperature Precipitation Wind Pressure Humidity
    00:00 -1°C° 0 mm 2 mps 743 mmHg 91%
    01:00 -1°C° 0 mm 3 mps 743 mmHg 92%
    02:00 -3°C° 0 mm 2 mps 744 mmHg 93%
    03:00 -2°C° 0 mm 3 mps 744 mmHg 94%
    04:00 -2°C° 0 mm 3 mps 744 mmHg 94%
    05:00 -2°C° 0 mm 3 mps 744 mmHg 94%
    06:00 -1°C° 0 mm 3 mps 744 mmHg 91%
    07:00 -1°C° 0 mm 3 mps 745 mmHg 89%
    08:00 -1°C° 0 mm 4 mps 745 mmHg 86%
    09:00 -1°C° 0.1 mm 4 mps 745 mmHg 85%
    10:00 0°C° 0.1 mm 4 mps 745 mmHg 83%
    11:00 0°C° 0.1 mm 4 mps 745 mmHg 81%
    12:00 0°C° 0.1 mm 4 mps 746 mmHg 80%
    13:00 0°C° 0.1 mm 4 mps 746 mmHg 80%
    14:00 +1°C° 0.1 mm 3 mps 746 mmHg 79%
    15:00 +1°C° 0.1 mm 3 mps 746 mmHg 80%
    16:00 +1°C° 0.1 mm 3 mps 746 mmHg 81%
    17:00 0°C° 0.1 mm 3 mps 746 mmHg 82%
    18:00 0°C° 0 mm 3 mps 746 mmHg 83%
    19:00 -1°C° 0 mm 3 mps 746 mmHg 85%
    20:00 -1°C° 0 mm 3 mps 746 mmHg 86%
    21:00 -2°C° 0 mm 3 mps 745 mmHg 86%
    22:00 -2°C° 0 mm 3 mps 745 mmHg 86%
    23:00 -2°C° 0 mm 3 mps 744 mmHg 86%

    Tomorrow, 21 March, Thursday

    Time Temperature Precipitation Wind Pressure Humidity
    00:00 -2°C° 0.1 mm 3 mps 744 mmHg 87%
    01:00 -2°C° 0.1 mm 3 mps 743 mmHg 87%
    02:00 -2°C° 0.1 mm 3 mps 743 mmHg 88%
    03:00 -1°C° 0.3 mm 3 mps 742 mmHg 89%
    04:00 -1°C° 0.3 mm 3 mps 742 mmHg 90%
    05:00 -1°C° 0.3 mm 3 mps 741 mmHg 92%
    06:00 -1°C° 0.1 mm 3 mps 742 mmHg 91%
    07:00 0°C° 0.1 mm 3 mps 742 mmHg 90%
    08:00 -1°C° 0.1 mm 4 mps 742 mmHg 89%
    09:00 0°C° 0 mm 4 mps 742 mmHg 86%
    10:00 0°C° 0 mm 4 mps 743 mmHg 84%
    11:00 0°C° 0 mm 4 mps 743 mmHg 82%
    12:00 +1°C° 0 mm 4 mps 743 mmHg 80%
    13:00 +1°C° 0 mm 4 mps 744 mmHg 79%
    14:00 +3°C° 0 mm 4 mps 744 mmHg 77%
    15:00 +2°C° 0 mm 3 mps 744 mmHg 81%
    16:00 +3°C° 0 mm 2 mps 744 mmHg 84%
    17:00 +2°C° 0 mm 2 mps 744 mmHg 87%
    18:00 +2°C° 0 mm 2 mps 744 mmHg 89%
    19:00 +1°C° 0 mm 2 mps 744 mmHg 91%
    20:00 +2°C° 0 mm 1 mps 744 mmHg 92%
    21:00 -1°C° 0 mm 2 mps 744 mmHg 92%
    22:00 -1°C° 0 mm 2 mps 743 mmHg 92%
    23:00 -2°C° 0 mm 2 mps 743 mmHg 92%

    Day after tomorrow, 22 March, Friday

    Time Temperature Precipitation Wind Pressure Humidity
    00:00 -2°C° 0 mm 2 mps 743 mmHg 92%
    01:00 -2°C° 0 mm 2 mps 742 mmHg 92%
    02:00 -1°C° 0 mm 2 mps 742 mmHg 93%
    03:00 -1°C° 0.4 mm 2 mps 741 mmHg 93%
    04:00 0°C° 0.4 mm 3 mps 741 mmHg 94%
    05:00 +1°C° 0.4 mm 3 mps 740 mmHg 94%
    06:00 +1°C° 0.4 mm 3 mps 740 mmHg 94%
    07:00 +2°C° 0.4 mm 3 mps 740 mmHg 94%
    08:00 +2°C° 0.4 mm 3 mps 740 mmHg 94%
    09:00 +3°C° 0 mm 4 mps 740 mmHg 86%
    10:00 +2°C° 0 mm 5 mps 740 mmHg 79%
    11:00 +2°C° 0 mm 5 mps 740 mmHg 71%
    12:00 +2°C° 0 mm 6 mps 741 mmHg 66%
    13:00 +3°C° 0 mm 6 mps 741 mmHg 61%
    14:00 +3°C° 0 mm 7 mps 741 mmHg 57%
    15:00 +2°C° 0 mm 6 mps 741 mmHg 61%
    16:00 +1°C° 0 mm 5 mps 741 mmHg 65%
    17:00 0°C° 0 mm 5 mps 741 mmHg 70%
    18:00 0°C° 0 mm 5 mps 742 mmHg 73%
    19:00 -1°C° 0 mm 5 mps 742 mmHg 76%
    20:00 -2°C° 0 mm 4 mps 743 mmHg 79%
    21:00 -2°C° 0 mm 4 mps 743 mmHg 81%
    22:00 -2°C° 0 mm 4 mps 743 mmHg 84%
    23:00 -3°C° 0 mm 4 mps 743 mmHg 86%

    23 March, Saturday

    Time Temperature Precipitation Wind Pressure Humidity
    00:00 -3°C° 0 mm 4 mps 744 mmHg 88%
    01:00 -2°C° 0 mm 3 mps 744 mmHg 90%
    02:00 -4°C° 0 mm 3 mps 744 mmHg 92%
    03:00 -4°C° 0 mm 3 mps 744 mmHg 94%
    04:00 -4°C° 0 mm 2 mps 744 mmHg 95%
    05:00 -4°C° 0 mm 2 mps 744 mmHg 96%
    06:00 -3°C° 0 mm 2 mps 744 mmHg 94%
    07:00 -1°C° 0 mm 1 mps 744 mmHg 91%
    08:00 0°C° 0 mm 1 mps 743 mmHg 88%
    09:00 -1°C° 0 mm 2 mps 743 mmHg 82%
    10:00 +2°C° 0 mm 2 mps 742 mmHg 76%
    11:00 +2°C° 0 mm 3 mps 741 mmHg 71%
    12:00 +2°C° 0.1 mm 3 mps 740 mmHg 72%
    13:00 +1°C° 0.1 mm 4 mps 739 mmHg 72%
    14:00 +2°C° 0.1 mm 5 mps 737 mmHg 73%
    15:00 +2°C° 0.2 mm 5 mps 737 mmHg 79%
    16:00 +2°C° 0.2 mm 5 mps 736 mmHg 85%
    17:00 +3°C° 0.2 mm 5 mps 735 mmHg 91%
    18:00 +2°C° 0.2 mm 5 mps 735 mmHg 89%
    19:00 +2°C° 0.2 mm 5 mps 735 mmHg 86%
    20:00 +1°C° 0.2 mm 5 mps 735 mmHg 84%
    21:00 0°C° 0 mm 4 mps 736 mmHg 81%
    22:00 -1°C° 0 mm 4 mps 736 mmHg 78%
    23:00 -2°C° 0 mm 4 mps 736 mmHg 74%

    24 March, Sunday

    Time Temperature Precipitation Wind Pressure Humidity
    00:00 -2°C° 0 mm 4 mps 736 mmHg 74%
    01:00 -2°C° 0 mm 5 mps 736 mmHg 74%
    02:00 -2°C° 0 mm 5 mps 736 mmHg 75%
    03:00 -4°C° 0 mm 5 mps 735 mmHg 75%
    04:00 -4°C° 0 mm 5 mps 735 mmHg 76%
    05:00 -4°C° 0 mm 5 mps 735 mmHg 76%
    06:00 -3°C° 0 mm 6 mps 735 mmHg 73%
    07:00 -3°C° 0 mm 7 mps 735 mmHg 70%
    08:00 -3°C° 0 mm 7 mps 735 mmHg 67%
    09:00 -3°C° 0.1 mm 7 mps 735 mmHg 66%
    10:00 -2°C° 0.1 mm 7 mps 735 mmHg 65%
    11:00 -2°C° 0.1 mm 7 mps 736 mmHg 64%
    12:00 -2°C° 0.1 mm 7 mps 736 mmHg 63%
    13:00 -2°C° 0.1 mm 8 mps 736 mmHg 62%
    14:00 -2°C° 0.1 mm 8 mps 736 mmHg 61%
    15:00 -2°C° 0 mm 7 mps 736 mmHg 59%
    16:00 -2°C° 0 mm 7 mps 737 mmHg 58%
    17:00 -2°C° 0 mm 6 mps 737 mmHg 56%
    18:00 -2°C° 0 mm 6 mps 737 mmHg 57%
    19:00 -3°C° 0 mm 6 mps 738 mmHg 57%
    20:00 -4°C° 0 mm 5 mps 738 mmHg 58%
    21:00 -4°C° 0 mm 5 mps 738 mmHg 59%
    22:00 -5°C° 0 mm 5 mps 739 mmHg 61%
    23:00 -4°C° 0 mm 4 mps 739 mmHg 62%

    25 March, Monday

    Time Temperature Precipitation Wind Pressure Humidity
    00:00 -4°C° 0 mm 3 mps 739 mmHg 66%
    01:00 -5°C° 0 mm 3 mps 739 mmHg 70%
    02:00 -4°C° 0 mm 2 mps 739 mmHg 74%
    03:00 -4°C° 0 mm 2 mps 738 mmHg 77%
    04:00 -4°C° 0 mm 2 mps 738 mmHg 79%
    05:00 -4°C° 0 mm 2 mps 737 mmHg 82%
    06:00 -3°C° 0 mm 2 mps 737 mmHg 77%
    07:00 -2°C° 0 mm 3 mps 736 mmHg 72%
    08:00 -2°C° 0 mm 3 mps 736 mmHg 66%
    09:00 -1°C° 0 mm 4 mps 735 mmHg 61%
    10:00 0°C° 0 mm 4 mps 734 mmHg 56%
    11:00 +2°C° 0 mm 5 mps 734 mmHg 50%
    12:00 +2°C° 0 mm 5 mps 733 mmHg 50%
    13:00 +2°C° 0 mm 5 mps 732 mmHg 49%
    14:00 +2°C° 0 mm 5 mps 731 mmHg 48%
    15:00 +2°C° 0 mm 5 mps 731 mmHg 53%
    16:00 +1°C° 0 mm 4 mps 730 mmHg 57%
    17:00 0°C° 0 mm 4 mps 729 mmHg 62%
    18:00 0°C° 0.1 mm 4 mps 729 mmHg 65%
    19:00 0°C° 0.1 mm 4 mps 728 mmHg 69%
    20:00 -1°C° 0.1 mm 4 mps 728 mmHg 72%
    21:00 -1°C° 0.5 mm 4 mps 727 mmHg 77%
    22:00 -1°C° 0.5 mm 4 mps 727 mmHg 82%
    23:00 -1°C° 0.5 mm 3 mps 726 mmHg 87%
    Show more